Orbital Elements at Epoch 2459000.5 (2020-May-31.0) TDB
Reference: JPL 17 (heliocentric ecliptic J2000)
Element | Value | Uncertainty (1-sigma) | Units |
e | .270622939603933 | 6.9271e-08 | |
a | 2.682483210471582 | 2.2821e-08 | au |
q | 1.956541718615566 | 1.9002e-07 | au |
i | 12.7267843847477 | 7.3286e-06 | deg |
node | 210.9621775029408 | 2.4135e-05 | deg |
peri | 136.7338535677586 | 2.667e-05 | deg |
M | 30.39876122368051 | 1.0225e-05 | deg |
tp | 2458864.994372768700 (2020-Jan-16.49437277) | 4.4782e-05 | TDB |
period | 1604.737293217956 4.39 | 2.0478e-05 5.607e-08 | d yr |
n | .2243357847552089 | 2.8628e-09 | deg/d |
Q | 3.408424702327597 | 2.8997e-08 | au |
|
| | Orbit Determination Parameters
Additional Information
|